Wind_Speed
16 17 14 9 9 9 5 6 8 10 10 10 11 11 11 11 9 7 7 7 7 6 7 7 6 6 4 3 5 8 11 13 14
23 20 18 10 12 16 14 6 3 9 11 10 10 11 12 11 12 11 9 9 9 9 9 10 9 8 8 8 8 10 12 17 21
26 22 22 17 14 14 13 10 7 3 10 11 13 14 14 14 13 12 12 12 10 12 13 13 13 14 14 11 11 12 17 19 22
27 25 23 21 19 17 14 12 13 8 7 14 16 16 15 16 16 13 13 12 11 13 14 14 17 18 17 15 17 18 20 21 24
27 27 24 22 17 20 18 14 15 16 12 11 18 15 16 15 17 16 14 14 13 9 7 10 11 16 18 18 19 22 25 25 26
32 24 20 19 18 16 11 9 9 13 16 13 17 18 17 15 17 18 16 15 14 10 7 6 7 7 11 16 21 22 23 25 25
33 33 28 26 18 13 11 10 9 7 11 15 17 18 17 17 18 19 16 17 15 14 10 8 9 11 14 17 20 23 23 23 24
38 35 35 34 24 17 12 13 10 10 10 13 18 19 18 18 19 20 20 18 17 16 12 11 13 14 16 18 20 22 22 23 25
38 34 36 38 29 22 16 17 15 13 13 14 18 21 20 21 22 16 17 15 14 14 16 14 13 16 18 21 22 21 21 26 32
35 36 47 34 33 32 21 18 17 17 17 18 18 20 22 21 18 18 19 15 16 16 15 15 17 18 20 21 21 23 30 33 31
34 39 47 37 34 31 21 19 17 19 21 22 21 23 24 23 21 21 21 17 16 16 16 18 18 18 20 25 26 30 33 34 31
25 31 39 34 35 26 22 24 16 17 19 24 26 26 26 26 25 22 19 19 17 14 16 16 18 21 27 30 34 40 39 40 37
22 33 25 36 31 26 26 27 23 24 26 27 25 24 24 23 23 21 20 14 12 12 15 18 22 26 30 34 41 43 42 38 41
33 29 24 26 34 30 33 29 29 29 28 26 25 23 22 22 21 7 6 10 11 13 16 22 28 31 37 41 39 37 37 39 39
24 37 28 29 31 35 33 34 36 36 31 29 32 33 30 34 44 32 17 20 20 22 28 36 37 37 43 37 37 42 41 38 38
22 32 39 34 32 33 35 40 38 41 38 33 28 18 21 34 6 16 29 19 25 28 34 42 46 46 39 40 40 45 45 43 40
27 26 26 26 25 28 34 37 35 33 31 26 25 31 31 30 34 27 23 26 31 38 45 46 50 44 37 41 46 48 46 43 44
25 17 16 18 16 22 27 27 30 30 25 20 15 17 12 7 2 13 25 35 39 40 36 37 36 39 43 46 50 50 50 48 44
14 15 15 13 16 19 19 19 20 23 20 14 12 15 10 3 8 17 25 30 29 31 33 37 40 44 48 51 50 54 51 43 39
11 12 14 15 16 17 19 22 17 7 8 10 14 15 4 5 12 18 22 27 30 33 38 43 45 47 49 49 48 46 44 43 40
Wind_Direction
203 196 209 222 230 240 229 156 161 184 191 197 214 214 200 206 204 215 222 233 248 260 269 287 271 255 249 276 309 323 317 315 314
214 202 214 218 236 241 243 241 156 184 196 198 222 232 231 228 225 229 243 253 265 277 275 286 281 265 264 269 293 310 322 325 316
214 205 216 222 232 235 244 262 236 181 200 216 220 235 236 242 245 243 244 256 288 287 283 270 273 258 258 272 290 314 324 322 311
205 205 211 220 226 231 242 263 250 255 234 215 214 226 236 239 246 250 255 262 275 285 285 285 271 254 254 260 275 288 307 308 307
203 204 214 222 229 220 236 229 241 251 252 257 216 219 235 234 238 242 247 255 265 269 293 292 276 251 245 253 274 284 296 305 305
202 216 216 219 221 211 209 218 228 243 248 243 221 219 228 237 232 225 234 246 253 244 259 284 293 284 263 271 278 282 290 293 295
213 219 213 223 225 212 208 207 209 226 246 246 237 227 224 227 232 229 224 235 240 235 245 261 273 275 274 276 286 295 305 307 307
216 219 220 223 221 231 215 212 218 219 236 248 246 242 229 233 226 222 220 226 228 232 250 269 281 288 291 298 300 302 304 309 311
222 224 234 231 218 230 241 227 228 228 238 251 252 250 240 236 240 222 226 232 241 249 255 264 280 292 289 289 292 298 308 315 313
219 246 237 233 239 236 248 249 242 241 242 247 250 256 255 249 242 230 238 247 248 253 268 270 271 273 285 298 298 299 305 309 313
243 240 231 236 240 234 248 252 242 256 251 249 249 249 249 251 239 234 241 248 256 267 259 263 272 285 298 304 302 308 318 320 315
240 240 227 244 241 237 255 262 258 260 259 258 253 248 246 249 244 246 257 265 260 256 265 269 284 297 306 312 311 313 317 314 311
230 213 235 236 229 244 249 243 237 243 241 239 237 238 243 246 250 244 253 251 248 249 271 286 294 300 303 309 309 310 308 309 307
215 205 212 235 241 240 237 241 237 238 235 228 224 221 223 231 253 171 210 274 271 276 287 300 304 309 302 300 305 303 303 305 306
206 203 222 224 232 235 233 238 237 239 232 230 229 218 221 222 241 228 197 287 288 312 313 313 309 293 298 304 302 302 302 305 305
219 207 212 217 220 221 228 233 237 240 241 246 228 224 316 321 226 266 243 277 303 300 297 293 290 292 297 301 296 298 305 307 306
193 185 191 204 216 227 235 235 240 248 246 259 266 310 310 310 260 270 234 270 287 296 292 296 289 294 296 293 296 299 302 308 308
193 192 186 190 203 221 233 241 242 246 259 270 315 319 348 38 290 237 249 262 280 287 289 293 293 293 292 292 295 300 305 305 303
184 177 175 185 207 221 227 226 240 245 261 271 299 316 345 305 259 253 266 274 282 286 285 285 286 286 289 293 298 298 299 297 295
156 161 165 178 197 203 212 229 229 264 294 313 325 348 22 250 265 274 280 282 283 280 287 288 289 289 288 290 292 291 289 290 295
Height
3184 3186 3190 3191 3193 3196 3199 3201 3203 3204 3205 3205 3207 3208 3210 3211 3211 3212 3212 3213 3213 3213 3213 3213 3214 3214 3214 3213 3212 3212 3211 3209 3207
3181 3183 3186 3188 3190 3193 3196 3198 3200 3201 3203 3204 3205 3207 3208 3209 3210 3211 3211 3211 3211 3211 3211 3210 3211 3211 3211 3211 3210 3210 3208 3206 3203
3177 3179 3183 3185 3187 3189 3192 3194 3197 3198 3200 3202 3203 3205 3206 3207 3208 3209 3210 3209 3209 3209 3209 3209 3207 3208 3208 3208 3207 3206 3204 3203 3198
3172 3174 3179 3182 3183 3185 3188 3190 3191 3194 3196 3198 3199 3201 3202 3204 3205 3206 3207 3208 3208 3207 3206 3206 3206 3205 3205 3205 3205 3203 3201 3199 3195
3170 3173 3175 3177 3179 3181 3183 3185 3186 3189 3192 3194 3196 3197 3198 3200 3201 3203 3204 3205 3206 3205 3204 3203 3202 3201 3202 3203 3202 3200 3198 3196 3191
3164 3168 3172 3174 3176 3177 3180 3181 3182 3184 3186 3189 3191 3193 3194 3195 3196 3198 3200 3202 3202 3202 3201 3200 3199 3199 3199 3200 3198 3197 3194 3191 3187
3161 3164 3168 3170 3171 3172 3174 3176 3177 3180 3182 3184 3186 3187 3189 3191 3192 3193 3195 3196 3196 3197 3197 3197 3196 3196 3196 3195 3193 3192 3190 3187 3184
3156 3160 3163 3164 3166 3167 3169 3172 3174 3175 3177 3179 3181 3182 3183 3185 3187 3189 3189 3190 3190 3192 3193 3193 3191 3190 3190 3189 3187 3184 3182 3180 3178
3149 3154 3156 3159 3162 3164 3164 3167 3169 3171 3173 3175 3177 3178 3180 3182 3184 3187 3187 3188 3188 3188 3188 3186 3186 3185 3184 3182 3181 3179 3176 3174 3171
3150 3150 3150 3153 3155 3157 3160 3161 3164 3166 3168 3170 3172 3174 3176 3178 3180 3181 3181 3183 3183 3184 3182 3182 3181 3179 3179 3176 3173 3170 3167 3163 3159
3139 3137 3143 3148 3151 3154 3157 3158 3160 3162 3163 3165 3169 3170 3172 3173 3176 3176 3177 3179 3177 3178 3178 3178 3177 3175 3172 3171 3168 3161 3156 3153 3151
3128 3132 3138 3141 3145 3150 3152 3155 3157 3158 3159 3161 3163 3164 3167 3169 3173 3175 3175 3173 3173 3175 3177 3175 3172 3169 3165 3161 3157 3152 3147 3141 3140
3120 3127 3133 3136 3142 3145 3148 3149 3149 3152 3153 3156 3159 3162 3166 3169 3170 3167 3171 3173 3171 3170 3170 3169 3166 3161 3156 3153 3149 3144 3140 3135 3131
3115 3120 3126 3133 3136 3138 3139 3142 3145 3146 3147 3150 3152 3155 3156 3165 3142 3142 3159 3174 3170 3166 3162 3161 3157 3151 3148 3145 3141 3136 3132 3127 3122
3113 3117 3120 3124 3128 3131 3133 3135 3138 3138 3139 3141 3142 3143 3149 3144 3145 3151 3152 3171 3165 3157 3153 3152 3148 3145 3141 3136 3132 3127 3122 3118 3114
3105 3109 3114 3116 3118 3121 3124 3127 3129 3130 3133 3136 3139 3143 3143 3143 3141 3143 3148 3156 3155 3149 3146 3143 3137 3130 3127 3125 3122 3116 3111 3107 3102
3098 3103 3108 3112 3116 3118 3118 3120 3124 3130 3133 3133 3136 3137 3136 3128 3126 3133 3140 3145 3143 3137 3134 3129 3125 3121 3117 3113 3110 3106 3101 3095 3089
3094 3097 3102 3106 3110 3113 3115 3119 3122 3125 3129 3127 3130 3129 3125 3122 3127 3129 3132 3134 3131 3129 3124 3120 3115 3111 3106 3101 3101 3095 3089 3084 3078
3091 3093 3096 3100 3103 3106 3112 3117 3120 3122 3123 3124 3125 3123 3121 3120 3122 3125 3124 3124 3123 3119 3113 3111 3108 3101 3096 3092 3084 3086 3078 3072 3065
3087 3093 3097 3100 3102 3103 3109 3114 3117 3118 3116 3116 3117 3115 3116 3118 3118 3118 3118 3116 3113 3111 3104 3101 3096 3090 3087 3081 3076 3074 3067 3062 3054